| time (UTC) | temp F | wind direction | speed MPH | gust MPH | rain 1hr in | rain 24hr in | rain mn in | humidity % | barometer mb |
| 20260505060030 | 37 | 0 | 0.0 | 0.0 | 0.00 | 0.16 | 0.00 | 91 | 1014.8 |
| 20260505054544 | 37 | 0 | 0.0 | 0.0 | 0.00 | 0.16 | 0.16 | 90 | 1014.9 |
| 20260505053033 | 37 | 0 | 0.0 | 0.0 | 0.00 | 0.16 | 0.16 | 90 | 1014.8 |
| 20260505051532 | 38 | 0 | 0.0 | 0.0 | 0.00 | 0.16 | 0.16 | 90 | 1014.6 |
| 20260505041530 | 40 | 0 | 0.0 | 0.0 | 0.00 | 0.16 | 0.16 | 90 | 1014.8 |
| 20260505040031 | 40 | 0 | 0.0 | 0.0 | 0.00 | 0.16 | 0.16 | 90 | 1014.8 |
| 20260505034535 | 40 | 0 | 0.0 | 0.0 | 0.00 | 0.16 | 0.16 | 90 | 1014.7 |
| 20260505033030 | 41 | 0 | 0.0 | 0.0 | 0.00 | 0.16 | 0.16 | 90 | 1014.7 |
| 20260505031532 | 41 | 0 | 0.0 | 0.0 | 0.00 | 0.16 | 0.16 | 90 | 1014.6 |
| 20260505030043 | 41 | 308 | 0.0 | 1.0 | 0.01 | 0.16 | 0.16 | 90 | 1014.4 |
| 20260505024530 | 41 | 0 | 0.0 | 0.0 | 0.01 | 0.16 | 0.16 | 91 | 1014.3 |
| 20260505023039 | 41 | 0 | 0.0 | 0.0 | 0.01 | 0.16 | 0.16 | 90 | 1014.2 |
| 20260505021531 | 41 | 0 | 0.0 | 0.0 | 0.00 | 0.15 | 0.15 | 90 | 1014.3 |
| 20260505020028 | 41 | 0 | 0.0 | 0.0 | 0.00 | 0.15 | 0.15 | 89 | 1014.4 |
| 20260505014537 | 41 | 0 | 0.0 | 0.0 | 0.00 | 0.15 | 0.15 | 89 | 1014.4 |
| 20260505013035 | 41 | 0 | 0.0 | 0.0 | 0.01 | 0.15 | 0.15 | 89 | 1014.3 |
| 20260505011531 | 41 | 0 | 0.0 | 0.0 | 0.11 | 0.15 | 0.15 | 88 | 1014.3 |
| 20260505010031 | 41 | 0 | 0.0 | 0.0 | 0.15 | 0.15 | 0.15 | 86 | 1014.5 |
| 20260505004553 | 41 | 0 | 0.0 | 1.0 | 0.15 | 0.15 | 0.15 | 85 | 1014.6 |
| 20260505003030 | 42 | 0 | 0.0 | 2.0 | 0.14 | 0.14 | 0.14 | 80 | 1014.8 |
| 20260505001536 | 49 | 0 | 0.0 | 4.0 | 0.02 | 0.02 | 0.02 | 68 | 1014.8 |
| 20260505000033 | 50 | 0 | 0.0 | 2.0 | 0.00 | 0.00 | 0.00 | 58 | 1014.1 |
| 20260504234529 | 50 | 0 | 0.0 | 11.0 | 0.00 | 0.00 | 0.00 | 58 | 1013.6 |
| 20260504233028 | 51 | 81 | 0.0 | 10.0 | 0.00 | 0.00 | 0.00 | 55 | 1013.3 |
| 20260504231535 | 51 | 0 | 0.0 | 6.0 | 0.00 | 0.00 | 0.00 | 55 | 1013.3 |
| 20260504230030 | 50 | 0 | 0.0 | 8.0 | 0.00 | 0.00 | 0.00 | 57 | 1013.3 |
| 20260504224535 | 50 | 0 | 0.0 | 9.0 | 0.00 | 0.00 | 0.00 | 56 | 1013.3 |
| 20260504223029 | 50 | 0 | 0.0 | 10.0 | 0.00 | 0.00 | 0.00 | 56 | 1013.1 |
| 20260504221538 | 51 | 0 | 0.0 | 5.0 | 0.00 | 0.00 | 0.00 | 54 | 1013.4 |
| 20260504220032 | 51 | 0 | 1.0 | 10.0 | 0.00 | 0.00 | 0.00 | 52 | 1012.8 |
| 20260504214531 | 53 | 0 | 0.0 | 11.0 | 0.00 | 0.00 | 0.00 | 46 | 1012.8 |
| 20260504213039 | 55 | 0 | 0.0 | 2.0 | 0.00 | 0.00 | 0.00 | 42 | 1012.3 |
| 20260504211534 | 55 | 0 | 0.0 | 6.0 | 0.00 | 0.00 | 0.00 | 45 | 1012.2 |
| 20260504210029 | 53 | 0 | 0.0 | 0.0 | 0.00 | 0.00 | 0.00 | 46 | 1012.8 |
| 20260504204534 | 53 | 0 | 0.0 | 6.0 | 0.00 | 0.00 | 0.00 | 46 | 1013.0 |
| 20260504203034 | 54 | 0 | 0.0 | 2.0 | 0.00 | 0.00 | 0.00 | 44 | 1013.3 |
| 20260504201530 | 54 | 0 | 0.0 | 0.0 | 0.00 | 0.00 | 0.00 | 43 | 1013.4 |
| 20260504200032 | 55 | 0 | 0.0 | 4.0 | 0.00 | 0.00 | 0.00 | 41 | 1013.5 |
| 20260504194530 | 57 | 0 | 0.0 | 15.0 | 0.00 | 0.00 | 0.00 | 37 | 1013.4 |
| 20260504193030 | 57 | 0 | 1.0 | 16.0 | 0.00 | 0.00 | 0.00 | 40 | 1013.2 |
| 20260504191554 | 57 | 0 | 0.0 | 8.0 | 0.00 | 0.00 | 0.00 | 40 | 1013.3 |
| 20260504190034 | 56 | 0 | 0.0 | 7.0 | 0.00 | 0.00 | 0.00 | 42 | 1013.4 |
| 20260504184541 | 56 | 0 | 0.0 | 4.0 | 0.00 | 0.00 | 0.00 | 38 | 1013.7 |
| 20260504183031 | 56 | 0 | 0.0 | 0.0 | 0.00 | 0.00 | 0.00 | 37 | 1013.7 |
| 20260504181528 | 55 | 0 | 0.0 | 1.0 | 0.00 | 0.00 | 0.00 | 39 | 1013.9 |
| 20260504180034 | 55 | 0 | 0.0 | 14.0 | 0.00 | 0.00 | 0.00 | 39 | 1014.0 |
| 20260504174530 | 54 | 281 | 3.0 | 13.0 | 0.00 | 0.00 | 0.00 | 38 | 1013.9 |
| 20260504173029 | 54 | 0 | 0.0 | 14.0 | 0.00 | 0.00 | 0.00 | 39 | 1013.9 |
| 20260504171529 | 54 | 0 | 2.0 | 19.0 | 0.00 | 0.00 | 0.00 | 39 | 1014.3 |
| 20260504081545 | 31 | 0 | 0.0 | 7.0 | 0.00 | 0.00 | 0.00 | 64 | 1015.4 |